Regional Weather Roundup
Issued by NWS Little Rock, AR

Home | Current Version | Previous Version | Graphics & Text | Print | Product List | Glossary On
Versions: 1 2 3 4 5 6 7 8 9 10 11 12 13 14 15 16 17 18 19 20 21 22 23 24 25 26 27 28 29 30 31 32 33 34 35 36 37 38 39 40 41 42 43 44 45 46 47 48 49 50
000
ASUS44 KLZK 310605
RWRLZK

WEATHER ROUNDUP FOR ARKANSAS
NATIONAL WEATHER SERVICE LITTLE ROCK AR
1200 AM CST SAT JAN 31 2015

NOTE: "FAIR" INDICATES FEW OR NO CLOUDS BELOW 12,000 FEET WITH NO
SIGNIFICANT WEATHER AND/OR OBSTRUCTIONS TO VISIBILITY.

ARZ001-003-010-029-310700-
NORTHWEST ARKANSAS

CITY           SKY/WX    TMP DP  RH WIND       PRES   REMARKS
FAYETTEVILLE   CLOUDY    37  28  70 CALM      30.35F
6HR MIN TEMP:  34; 6HR MAX TEMP:  45;

FORT SMITH     CLOUDY    43  30  60 NE5       30.37F
6HR MIN TEMP:  42; 6HR MAX TEMP:  47;

HARRISON       CLOUDY    37  23  56 SE3       30.35F
6HR MIN TEMP:  36; 6HR MAX TEMP:  42;

BENTONVILLE    CLOUDY    39  23  52 CALM      30.35F
6HR MIN TEMP:  39; 6HR MAX TEMP:  45;

ROGERS         CLOUDY    40  22  48 CALM      30.35S
6HR MIN TEMP:  40; 6HR MAX TEMP:  44;

SILOAM SPGS    CLOUDY    39  21  48 CALM      30.35F
6HR MIN TEMP:  39; 6HR MAX TEMP:  45;

HIGHFILL       CLOUDY    41  23  48 CALM      30.34F
6HR MIN TEMP:  39; 6HR MAX TEMP:  45;

$$

ARZ004-005-016-310700-
NORTH CENTRAL ARKANSAS

CITY           SKY/WX    TMP DP  RH WIND       PRES   REMARKS
BATESVILLE     MOCLDY    37  27  65 E3        30.41F
6HR MIN TEMP:  36; 6HR MAX TEMP:  39;

FLIPPIN        CLOUDY    34  23  64 CALM      30.37S
6HR MIN TEMP:  34; 6HR MAX TEMP:  45;

MTN HOME       CLOUDY    37  22  54 SE5       30.37S
6HR MIN TEMP:  37; 6HR MAX TEMP:  41;

$$

ARZ040-041-310700-
WEST CENTRAL ARKANSAS

CITY           SKY/WX    TMP DP  RH WIND       PRES   REMARKS
MENA           CLOUDY    41  32  70 CALM      30.36F
MOUNT IDA      CLOUDY    42  29  59 CALM      30.35F
6HR MIN TEMP:  38; 6HR MAX TEMP:  45;

$$

ARZ009-017-025-026-028-310700-
NORTHEAST ARKANSAS

CITY           SKY/WX    TMP DP  RH WIND       PRES   REMARKS
CORNING        FAIR      32  28  86 CALM      30.44S
JONESBORO      MOCLDY    32  29  88 NE3       30.42F
6HR MIN TEMP:  29; 6HR MAX TEMP:  39;

NEWPORT        MOCLDY    35  32  89 CALM      30.43F
6HR MIN TEMP:  34; 6HR MAX TEMP:  38; 6HR PCP: TRACE;

WALNUT RIDGE   PTCLDY    32  27  80 CALM      30.43F
6HR MIN TEMP:  32; 6HR MAX TEMP:  39;

BLYTHEVILLE    CLOUDY    32  28  85 NE5       30.43F WCI  27
6HR MIN TEMP:  28; 6HR MAX TEMP:  39;

$$

ARZ022-023-033-042-044-310700-
CENTRAL ARKANSAS

CITY           SKY/WX    TMP DP  RH WIND       PRES   REMARKS
LITTLE ROCK    CLOUDY    40  28  62 E3        30.42F
6HR MIN TEMP:  38; 6HR MAX TEMP:  44;

N LITTLE ROCK  CLOUDY    39  30  69 E6        30.42F
6HR MIN TEMP:  37; 6HR MAX TEMP:  45;

JACKSONVILLE   CLOUDY    36  30  79 CALM      30.41F
6HR MIN TEMP:  31; 6HR MAX TEMP:  41;

SEARCY         CLOUDY    38  29  70 CALM      30.44F
6HR MIN TEMP:  34; 6HR MAX TEMP:  42;

HOT SPRINGS    CLOUDY    42  27  55 SE5       30.39F
6HR MIN TEMP:  37; 6HR MAX TEMP:  46;

RUSSELLVILLE   CLOUDY    42  25  50 E7        30.38F
6HR MIN TEMP:  38; 6HR MAX TEMP:  44;

CLINTON        FAIR      36  27  69 CALM      30.43S
$$

ARZ036-310700-
EAST ARKANSAS

CITY           SKY/WX    TMP DP  RH WIND       PRES   REMARKS
WEST MEMPHIS   PTCLDY    33  29  85 N3        30.42F
6HR MIN TEMP:  33; 6HR MAX TEMP:  41;

$$

ARZ050-053-066-070-073-310700-
SOUTHWEST ARKANSAS

CITY           SKY/WX    TMP DP  RH WIND       PRES   REMARKS
ARKADELPHIA    FAIR      38  34  85 CALM      30.41F FOG
6HR MIN TEMP:  37; 6HR MAX TEMP:  46;

CAMDEN         PTCLDY    32  28  86 CALM      30.41F
TEXARKANA      CLOUDY    42  31  64 E5        30.37F
6HR MIN TEMP:  40; 6HR MAX TEMP:  47;

EL DORADO      CLEAR     33  28  81 CALM      30.39F
6HR MIN TEMP:  32; 6HR MAX TEMP:  46;

DE QUEEN       CLOUDY    42  30  62 E6        30.36F
6HR MIN TEMP:  37; 6HR MAX TEMP:  51;

$$

ARZ056-057-069-310700-
SOUTHEAST ARKANSAS

CITY           SKY/WX    TMP DP  RH WIND       PRES   REMARKS
PINE BLUFF     PTCLDY    36  28  73 NE5       30.41F
6HR MIN TEMP:  35; 6HR MAX TEMP:  43;

STUTTGART      CLOUDY    39  28  65 E7        30.42F
6HR MIN TEMP:  36; 6HR MAX TEMP:  43;

MONTICELLO     CLEAR     36  29  75 CALM      30.40F
6HR MIN TEMP:  35; 6HR MAX TEMP:  46;


$$





USA.gov is the U.S. government's official web portal to all federal, state and local government web resources and services.